Location: Ecklingerode
(51.5036°N, 10.3122°E)
Time: 00:37:38
(UTC+00:00)

Cosmos 968 Rocket - Pass Details

Date: 29 October 2020
Orbit: 741 x 770 km, 74.0° (Epoch: 23 November)

Event Time Altitude Azimuth Distance (km) Brightness Sun altitude
Rises 16:34:17 0° 337° (NNW) 3,245 6.9 -6.4°
Reaches altitude 10° 16:36:45 10° 343° (NNW) 2,311 6.1 -6.8°
Maximum altitude 16:41:51 50° 58° (ENE) 967 3.7 -7.6°
Drops below altitude 10° 16:46:52 10° 134° (SE) 2,278 5.6 -8.3°
Sets 16:49:17 0° 140° (SE) 3,194 6.4 -8.7°
